Date,TemperatureHighF,TemperatureAvgF,TemperatureLowF,DewpointHighF,DewpointAvgF,DewpointLowF,HumidityHigh,HumidityAvg,HumidityLow,PressureMaxIn,PressureMinIn,WindSpeedMaxMPH,WindSpeedAvgMPH,GustSpeedMaxMPH,PrecipitationSumIn
2012-1-1,61.1,47.2,35.2,43.2,38.0,31.8,97,73,44,30.27,30.16,9,2,11,0.00
2012-1-2,62.9,49.8,38.2,48.6,42.5,33.5,92,77,54,30.32,30.19,10,1,11,0.00
2012-1-3,64.2,50.9,39.9,46.4,42.2,38.6,95,75,46,30.39,30.28,9,1,10,0.00
2012-1-4,65.7,51.5,39.0,44.5,40.4,36.1,90,68,44,30.43,30.29,7,1,7,0.00
2012-1-5,67.2,50.9,38.2,49.4,40.9,35.1,90,71,39,30.34,30.15,8,1,10,0.00
2012-1-6,61.6,48.1,37.0,45.6,40.1,34.7,92,76,50,30.21,30.12,6,1,7,0.00
2012-1-7,66.0,56.9,39.6,38.2,30.1,22.0,86,41,19,30.25,30.12,27,8,30,0.00
2012-1-8,62.0,53.1,40.9,39.3,28.3,19.9,61,40,23,30.27,30.16,20,4,24,0.00
2012-1-9,63.4,47.9,36.3,40.1,32.9,29.2,77,58,32,30.30,30.17,7,1,7,0.00
2012-1-10,64.3,49.4,37.8,38.7,33.3,29.2,75,56,33,30.21,30.10,12,2,12,0.00
2012-1-11,43.4,41.3,39.3,30.7,29.8,28.8,67,63,59,30.12,30.10,3,0,3,0.00
2012-1-12,66.3,54.7,39.1,29.7,27.0,24.2,61,37,21,30.16,30.06,13,3,16,0.00
2012-1-13,66.1,49.7,36.7,35.4,29.9,25.8,69,49,27,30.29,30.16,12,2,12,0.00
2012-1-14,63.1,47.1,34.4,36.9,32.4,27.3,78,59,36,30.25,30.07,7,1,9,0.00
2012-1-15,53.7,47.2,37.4,42.9,37.3,26.3,90,69,49,30.16,29.96,28,7,28,0.00
2012-1-16,52.8,40.7,29.8,28.0,22.1,16.5,76,51,25,30.33,30.15,9,1,12,0.00
2012-1-17,50.8,38.9,26.3,35.0,26.0,19.9,80,62,37,30.46,30.33,7,1,7,0.00
2012-1-18,56.7,44.9,30.4,41.4,36.7,27.4,90,74,54,30.44,30.27,12,2,12,0.00
2012-1-19,50.5,43.8,40.4,42.7,39.8,37.0,96,86,66,30.27,30.08,11,3,12,0.09
2012-1-20,55.6,46.6,42.4,54.8,45.3,41.3,98,95,88,30.08,29.68,16,3,16,0.75
2012-1-21,56.9,51.3,43.3,54.7,43.0,37.1,98,75,51,30.16,29.69,18,5,19,1.09
2012-1-22,49.8,45.7,42.2,46.8,42.7,38.8,94,89,82,30.20,29.84,18,4,18,0.01
2012-1-23,57.7,49.0,42.5,48.2,44.8,40.6,96,86,62,30.15,29.66,26,4,26,0.02
2012-1-24,58.0,48.5,39.8,50.0,44.9,38.5,96,88,71,30.44,30.15,6,1,7,0.01
2012-1-25,61.3,52.0,44.6,52.0,47.5,43.3,95,85,70,30.48,30.35,14,2,14,0.00
2012-1-26,53.7,49.9,45.4,50.8,47.8,43.8,96,93,90,30.35,30.26,8,2,10,0.01
2012-1-27,65.8,58.4,51.1,49.5,26.0,16.4,90,33,16,30.29,30.21,22,6,24,0.01
2012-1-28,61.1,49.6,35.9,34.6,28.9,21.0,70,47,26,30.39,30.27,16,2,16,0.00
2012-1-29,64.1,52.4,42.1,45.7,39.3,31.6,77,62,47,30.32,30.12,11,2,11,0.00
2012-1-30,61.3,52.9,44.9,47.2,44.6,41.1,92,74,56,30.14,30.01,9,1,11,0.00
2012-1-31,59.9,48.4,39.3,49.3,44.4,38.0,96,87,67,30.17,30.04,16,3,18,0.00
2012-2-1,60.6,52.0,45.1,49.8,46.1,38.0,95,81,59,30.28,30.16,16,4,19,0.00
2012-2-2,67.8,54.5,41.4,40.8,31.9,21.6,84,48,18,30.26,29.97,16,3,17,0.00
2012-2-3,60.7,49.2,38.4,44.7,36.6,30.5,82,63,39,30.11,30.02,14,3,14,0.00
2012-2-4,64.2,51.2,40.1,37.1,33.6,30.0,77,53,32,30.14,30.07,13,2,14,0.00
2012-2-5,65.2,52.6,40.2,36.8,34.6,31.8,77,53,29,30.15,30.02,11,2,12,0.00
2012-2-6,61.8,52.5,43.4,39.9,36.3,33.9,72,55,38,30.03,29.79,11,3,11,0.00
2012-2-7,54.3,50.8,47.8,51.3,48.5,39.8,95,92,58,30.13,29.82,11,3,13,0.01
2012-2-8,64.7,54.4,45.6,52.9,48.9,44.3,97,83,58,30.28,30.13,10,2,12,0.00
2012-2-9,65.9,54.6,43.2,53.4,48.3,41.3,96,80,59,30.31,30.15,9,2,10,0.02
2012-2-10,62.2,54.7,48.3,54.7,49.1,43.1,92,82,61,30.19,30.07,15,5,19,0.01
2012-2-11,60.3,53.1,47.9,50.7,48.4,45.1,94,84,68,30.08,30.00,10,2,10,0.02
2012-2-12,59.6,50.1,40.3,48.9,44.0,39.0,95,81,59,30.08,29.96,16,4,16,0.01
2012-2-13,53.9,47.7,40.6,44.1,41.8,38.3,94,80,65,30.02,29.91,22,4,26,0.01
2012-2-14,60.0,48.5,36.9,44.7,39.7,34.3,92,73,48,30.11,29.99,20,3,24,0.03
2012-2-15,57.8,52.8,46.7,42.7,27.1,22.0,85,39,27,30.18,29.98,28,9,33,0.01
2012-2-16,67.0,56.0,45.3,35.4,28.7,23.8,65,36,22,30.28,30.18,22,5,23,0.00
2012-2-17,66.3,51.1,37.6,51.4,42.0,32.8,92,73,42,30.30,30.15,12,2,12,0.00
2012-2-18,58.9,50.9,43.1,51.5,43.6,32.1,95,77,52,30.19,30.09,13,2,13,0.00
2012-2-19,58.1,48.0,39.8,40.0,34.6,29.1,79,62,34,30.16,30.04,13,4,15,0.00
2012-2-20,57.9,50.8,44.9,46.4,43.5,39.8,94,77,60,30.23,30.09,13,3,13,0.00
2012-2-21,71.0,55.1,43.1,53.4,46.6,40.0,92,75,46,30.33,30.21,9,1,9,0.00
2012-2-22,75.3,61.2,46.7,54.5,48.6,43.1,89,65,42,30.31,30.08,10,2,10,0.00
2012-2-23,73.5,64.6,48.8,46.9,23.5,8.0,85,27,8,30.09,29.94,35,10,35,0.00
2012-2-24,73.9,61.9,51.4,43.9,31.6,14.0,71,35,14,30.15,29.98,23,6,23,0.00
2012-2-25,61.8,53.4,44.8,39.9,33.3,29.0,73,47,35,30.34,30.14,15,4,15,0.00
2012-2-26,58.7,48.0,36.3,35.3,28.8,21.5,72,49,24,30.21,29.85,16,3,16,0.00
2012-2-27,57.4,46.6,35.9,36.6,31.9,26.5,84,59,35,29.95,29.81,11,2,12,0.00
2012-2-28,54.8,47.4,38.8,39.6,35.7,32.9,81,64,48,30.22,29.95,21,6,23,0.00
2012-2-29,54.0,48.4,44.7,46.3,42.8,39.2,95,81,64,30.25,30.02,24,6,26,0.55
2012-3-1,59.6,50.6,44.4,51.2,43.5,37.9,95,78,49,30.27,30.16,20,5,21,0.36
2012-3-2,64.1,53.8,46.3,43.2,28.4,21.8,86,40,21,30.38,30.26,19,5,23,0.00
2012-3-3,68.5,53.4,40.1,46.1,39.0,33.1,80,60,35,30.39,30.25,12,2,14,0.00
2012-3-4,73.2,57.6,43.9,50.3,44.2,39.2,85,64,33,30.26,30.06,9,2,12,0.00
2012-3-5,75.1,55.3,42.9,52.1,44.4,38.9,92,70,33,30.10,29.94,21,4,23,0.00
2012-3-6,57.3,51.6,45.8,46.1,25.4,9.2,90,42,15,30.08,29.89,28,8,28,0.00
2012-3-7,65.3,53.1,44.1,29.9,19.8,10.5,52,29,12,30.20,30.07,29,7,29,0.00
2012-3-8,66.6,52.8,37.3,38.1,32.5,27.6,74,48,27,30.35,30.19,11,2,12,0.00
2012-3-9,71.3,55.3,39.2,43.0,37.2,32.2,80,53,31,30.35,30.10,10,2,10,0.00
2012-3-10,65.1,52.6,44.5,50.0,41.5,30.0,85,67,44,30.10,29.95,22,8,23,0.00
2012-3-11,62.2,52.7,43.6,48.8,42.1,35.9,84,68,47,30.06,29.97,17,6,21,0.00
2012-3-12,61.4,50.1,36.0,45.0,39.9,32.6,90,70,43,30.07,29.93,17,4,18,0.00
2012-3-13,55.4,54.0,51.5,52.4,49.7,43.6,93,86,68,29.99,29.86,22,6,23,0.94
2012-3-14,57.2,54.7,52.4,56.1,53.6,51.2,97,96,92,30.14,29.97,14,4,14,0.42
2012-3-15,58.8,55.8,55.0,54.6,53.1,51.6,95,91,85,30.14,30.05,15,5,16,0.12
2012-3-16,57.5,54.3,48.5,56.4,52.2,43.0,97,93,77,30.07,29.68,21,6,21,0.06
2012-3-17,52.7,46.0,38.4,44.6,40.9,36.8,96,83,66,29.73,29.53,17,3,17,0.04
2012-3-18,56.6,47.5,41.6,39.5,34.5,27.2,85,62,38,29.94,29.61,22,4,25,0.02
2012-3-19,54.6,46.1,36.0,40.2,35.8,30.8,84,68,44,30.11,29.94,9,2,10,0.06
2012-3-20,63.9,54.4,47.7,47.5,42.4,37.2,80,65,47,30.23,30.11,9,1,9,0.21
2012-3-21,71.2,58.3,48.7,53.3,48.8,44.8,90,72,46,30.19,29.96,13,2,13,0.29
2012-3-22,62.6,54.7,45.5,51.6,42.1,27.5,92,66,29,30.00,29.90,19,5,21,0.05
2012-3-23,62.0,50.8,41.6,43.0,37.3,32.1,81,61,44,30.11,29.89,14,4,15,0.01
2012-3-24,53.6,48.0,44.2,45.0,40.8,30.5,95,78,43,29.93,29.83,17,3,18,0.00
2012-3-25,58.3,48.5,41.5,46.8,42.8,40.4,97,82,57,29.91,29.80,8,2,9,0.01
2012-3-26,59.7,51.1,42.3,44.3,41.1,38.0,88,70,46,30.11,29.88,18,5,18,0.01
2012-3-27,55.8,51.4,47.6,52.3,47.7,40.6,97,87,66,30.04,29.90,14,4,15,0.02
2012-3-28,66.0,57.1,51.6,53.1,49.7,40.4,95,78,42,30.12,29.95,15,5,19,0.01
2012-3-29,62.4,55.6,47.7,51.9,49.3,43.9,92,80,62,30.14,30.07,13,4,15,0.02
2012-3-30,64.6,57.9,52.9,55.2,52.8,50.9,94,84,71,30.11,29.90,17,4,20,0.01
2012-3-31,59.4,53.8,47.2,53.0,47.3,41.8,93,79,57,30.00,29.71,35,8,35,0.02
2012-4-1,63.4,53.8,46.5,44.8,38.5,33.1,87,58,35,30.27,29.99,18,3,18,0.00
2012-4-2,68.1,55.6,44.1,47.3,41.3,37.5,84,61,35,30.25,30.03,19,3,19,0.00
2012-4-3,67.9,55.9,47.1,50.7,46.2,38.2,88,71,47,30.07,29.97,18,6,20,0.01
2012-4-4,63.9,52.8,40.8,40.5,33.8,21.4,86,52,21,30.19,30.06,15,3,17,0.00
2012-4-5,60.0,48.5,38.0,40.4,33.3,25.8,78,57,28,30.17,30.07,11,2,13,0.00
2012-4-6,62.6,49.0,36.4,41.5,34.6,28.6,87,61,29,30.30,30.16,10,2,11,0.00
2012-4-7,66.9,53.7,38.8,42.4,36.8,32.1,83,55,32,30.18,30.02,11,2,11,0.00
2012-4-8,72.0,56.7,44.0,46.1,39.8,29.9,82,56,26,30.08,29.98,13,2,13,0.00
2012-4-9,69.7,57.2,44.2,43.3,36.2,26.6,76,48,22,30.01,29.82,22,3,22,0.00
2012-4-10,55.7,53.6,51.2,53.1,49.3,42.3,95,86,62,29.92,29.82,19,2,19,0.08
2012-4-11,52.7,52.0,51.3,50.4,49.8,49.4,94,92,91,29.82,29.80,9,3,9,0.00
2012-4-13,60.3,50.9,45.4,47.9,44.0,40.3,94,78,51,29.85,29.72,16,3,18,0.13
2012-4-14,68.1,56.0,43.8,49.8,43.8,39.1,87,65,43,30.10,29.85,11,2,11,0.02
2012-4-15,71.4,58.1,47.8,54.4,48.4,44.4,93,72,43,30.22,30.09,13,4,15,0.01
2012-4-16,69.9,57.8,49.1,50.1,46.6,40.3,84,68,38,30.21,30.13,17,5,20,0.01
2012-4-17,70.3,59.0,48.7,56.8,50.1,42.5,91,74,49,30.16,30.03,18,5,20,0.00
2012-4-18,73.9,61.8,51.0,55.6,51.0,46.2,88,70,46,30.14,30.05,17,4,17,0.00
2012-4-19,80.2,67.9,54.8,64.0,57.3,51.5,89,70,54,30.15,30.02,11,2,11,0.00
2012-4-20,90.4,74.3,58.0,63.5,57.7,51.8,92,60,30,30.06,29.92,12,2,15,0.00
2012-4-21,88.4,74.4,59.5,68.5,60.8,54.2,86,64,44,29.96,29.82,9,2,10,0.00
2012-4-22,88.3,72.2,59.0,65.1,59.4,53.3,88,67,37,29.89,29.77,16,3,17,0.00
2012-4-23,70.4,61.8,56.8,55.2,52.1,49.4,86,71,56,29.98,29.81,22,8,27,0.00
2012-4-24,73.9,64.0,55.9,57.5,54.7,51.7,88,72,52,30.06,29.92,14,4,16,0.00
2012-4-25,72.6,63.8,57.9,58.2,54.9,51.9,94,74,53,30.00,29.76,15,4,15,0.08
2012-4-26,64.6,58.8,50.9,56.7,48.1,38.6,94,69,47,30.17,29.76,22,6,22,0.01
2012-4-27,72.2,59.3,44.7,50.1,43.5,36.8,83,58,31,30.23,30.10,12,2,13,0.00
2012-4-28,80.5,66.7,52.0,58.0,51.1,45.0,80,59,34,30.11,29.84,16,2,17,0.00
2012-4-29,85.9,69.6,54.0,59.4,53.3,47.4,88,60,27,29.91,29.82,13,2,13,0.00
2012-4-30,81.2,67.4,56.2,60.1,54.5,48.6,84,65,45,29.93,29.81,20,5,22,0.00
2012-5-1,71.7,59.9,49.9,51.6,48.0,44.4,87,67,45,29.90,29.80,20,6,22,0.00
2012-5-2,69.9,56.4,47.1,49.7,43.4,34.3,81,63,37,29.94,29.82,24,6,26,0.00
2012-5-3,63.7,56.1,50.3,53.8,49.2,41.9,87,78,69,30.09,29.90,19,7,20,0.00
2012-5-4,71.1,60.2,51.0,51.5,48.0,45.5,90,66,41,30.18,30.07,20,5,20,0.00
2012-5-5,78.0,67.4,51.9,47.1,34.0,22.7,80,33,13,30.21,30.01,23,6,25,0.00
2012-5-6,85.1,73.5,65.1,42.2,34.9,27.7,42,25,13,30.07,29.97,21,6,24,0.00
2012-5-7,89.8,74.3,55.0,50.2,40.1,26.7,71,34,11,30.02,29.90,15,2,18,0.00
2012-5-8,92.8,74.4,54.7,54.4,45.9,30.8,79,42,12,29.96,29.84,12,2,14,0.00
2012-5-9,87.5,70.0,56.2,58.8,51.2,40.7,77,54,20,29.93,29.79,16,4,17,0.00
2012-5-10,61.3,57.1,53.8,48.4,46.4,45.1,74,68,62,29.86,29.80,8,4,8,0.00
2012-5-18,83.9,75.1,59.1,51.0,47.0,43.3,64,38,25,29.94,29.84,15,5,17,0.00
2012-5-19,87.1,69.0,53.6,54.4,49.1,41.1,76,53,21,29.96,29.86,12,3,13,0.00
2012-5-20,90.6,71.9,56.5,57.0,52.0,47.8,75,52,26,29.96,29.84,17,4,18,0.00
2012-5-21,77.5,65.4,54.1,56.6,53.0,48.7,86,66,43,30.04,29.89,24,9,26,0.00
2012-5-22,82.5,69.1,56.4,56.5,52.2,44.6,88,59,30,30.06,29.95,21,5,23,0.00
2012-5-23,82.0,68.9,53.2,51.8,47.1,42.1,77,49,28,29.99,29.83,14,2,14,0.00
2012-5-24,78.3,65.9,54.1,51.1,43.8,33.9,72,47,29,29.86,29.62,24,4,27,0.00
2012-5-25,66.8,58.7,47.7,50.1,41.2,33.8,72,53,33,29.81,29.66,18,3,20,0.05
2012-5-26,72.0,60.2,52.1,52.2,48.7,46.3,83,67,48,30.05,29.79,19,6,21,0.00
2012-5-27,75.5,61.5,50.6,55.2,49.8,46.5,87,68,46,30.13,30.01,15,5,18,0.00
2012-5-28,71.4,60.0,51.4,51.1,48.2,44.3,87,66,47,30.03,29.95,19,8,25,0.00
2012-5-29,81.8,65.0,50.6,55.7,49.8,44.8,86,61,31,30.05,29.96,15,4,16,0.00
2012-5-30,88.6,72.3,54.5,58.6,53.3,49.5,84,55,33,30.06,29.94,13,4,15,0.00
2012-5-31,96.0,76.1,56.5,61.4,54.3,50.3,80,51,27,29.99,29.78,12,3,14,0.00
2012-6-1,96.9,77.1,60.3,64.7,58.1,53.0,80,55,32,29.81,29.66,18,4,18,0.00
2012-6-2,85.9,72.1,57.0,61.9,55.0,49.6,77,57,39,29.86,29.70,25,7,25,0.00
2012-6-3,87.6,68.2,53.8,55.9,50.1,44.3,82,56,31,29.89,29.80,18,6,20,0.00
2012-6-4,64.1,62.2,60.9,52.0,50.7,49.7,69,66,62,29.87,29.86,7,2,7,0.00
2012-6-5,71.9,65.3,55.8,44.8,41.8,37.2,60,43,30,30.17,30.08,10,2,13,0.00
2012-6-6,78.5,65.7,51.3,48.8,45.0,42.1,75,49,32,30.08,29.91,17,4,18,0.00
2012-6-7,82.1,68.2,54.5,55.0,50.0,44.4,70,54,36,29.97,29.89,19,6,20,0.00
2012-6-8,80.5,67.6,55.5,52.0,47.2,34.3,79,51,20,29.94,29.83,22,5,24,0.00
2012-6-9,81.9,69.3,53.7,44.8,33.3,19.3,70,31,11,30.00,29.84,27,7,30,0.00
2012-6-10,90.4,79.0,67.7,42.3,34.1,23.3,31,21,9,29.89,29.81,29,6,32,0.00
2012-6-11,96.8,79.8,61.1,51.7,43.7,36.2,58,31,15,29.93,29.84,16,3,16,0.00
2012-6-12,94.3,77.3,60.6,60.2,55.2,51.5,75,49,30,29.93,29.79,17,4,18,0.00
2012-6-13,66.4,64.4,61.3,53.7,52.1,51.5,76,64,61,29.83,29.68,10,5,12,0.00
2012-6-14,92.1,72.4,57.8,58.2,53.1,46.4,78,54,28,29.74,29.65,18,6,22,0.00
2012-6-15,94.7,77.0,57.9,55.9,50.8,44.3,71,44,22,29.77,29.68,15,4,17,0.00
2012-6-16,104.0,85.5,63.8,59.0,51.5,41.7,67,36,14,29.81,29.71,21,3,23,0.00
2012-6-17,96.0,79.4,60.4,60.0,55.7,50.0,76,46,27,29.81,29.70,24,6,24,0.00
2012-6-18,79.5,64.9,55.9,56.5,52.2,48.5,85,65,43,29.85,29.72,29,10,31,0.00
2012-6-19,92.5,72.8,55.3,55.3,47.5,35.1,81,48,14,29.87,29.76,14,2,15,0.00
2012-6-20,96.5,78.4,59.8,55.3,49.7,39.7,78,42,18,29.83,29.71,17,3,17,0.00
2012-6-21,69.9,61.7,53.9,52.8,50.0,47.7,84,66,50,29.87,29.71,32,11,33,0.00
2012-6-22,70.4,60.5,52.1,55.2,50.8,46.7,83,71,55,29.94,29.83,22,7,22,0.00
2012-6-23,72.7,61.3,50.9,51.0,46.7,42.7,89,62,37,29.92,29.82,19,6,19,0.00
2012-6-24,76.1,62.1,51.5,48.7,44.4,34.6,87,56,23,30.01,29.92,17,5,19,0.00
2012-6-25,73.9,62.1,51.4,51.3,48.3,44.6,85,62,40,30.08,29.99,19,6,20,0.00
2012-6-26,82.4,65.9,49.3,52.6,48.9,45.0,87,58,29,30.05,29.84,15,2,15,0.00
2012-6-27,88.6,71.4,55.5,53.8,46.0,15.4,78,47,8,29.90,29.83,15,3,17,0.00
2012-6-28,86.7,70.7,58.0,55.1,52.0,49.1,82,55,30,29.99,29.89,19,7,23,0.00
2012-6-29,83.0,68.7,56.2,59.2,55.1,51.7,86,64,40,30.04,29.93,19,7,19,0.00
2012-6-30,88.1,72.4,59.5,63.2,58.9,54.2,85,65,42,29.96,29.85,20,6,20,0.00
2012-7-1,81.0,68.8,60.2,62.7,59.3,56.8,89,73,53,29.91,29.80,19,7,22,0.00
2012-7-2,86.8,70.5,59.3,61.6,57.9,52.2,89,67,42,29.84,29.76,23,6,23,0.00
2012-7-3,90.6,72.9,56.4,61.0,55.0,50.7,83,57,33,29.88,29.74,15,4,16,0.00
2012-7-4,87.7,72.0,60.2,59.9,54.9,51.8,75,57,35,29.81,29.74,19,5,20,0.00
2012-7-5,80.1,65.6,55.0,56.4,52.0,47.4,86,64,37,29.91,29.78,25,9,25,0.00
2012-7-6,90.7,70.1,54.6,58.1,53.1,47.6,87,59,27,29.99,29.89,16,4,16,0.00
2012-7-7,98.0,78.2,58.0,59.6,50.0,40.1,77,43,14,29.97,29.84,16,3,18,0.00
2012-7-8,97.8,74.5,59.2,58.0,52.2,41.4,74,50,15,29.94,29.87,16,5,17,0.00
2012-7-9,92.4,72.0,57.0,58.2,53.1,50.2,80,55,28,29.97,29.87,17,6,18,0.00
2012-7-10,99.9,78.4,57.1,61.8,53.3,48.1,81,48,19,29.93,29.75,11,2,11,0.00
2012-7-11,70.9,66.8,64.5,53.8,52.7,50.8,68,61,49,29.80,29.79,6,2,6,0.00
2012-7-12,103.5,85.7,61.4,61.4,56.7,42.8,74,41,14,29.80,29.69,21,5,21,0.00
2012-7-13,77.6,64.6,56.5,56.8,53.3,50.8,84,68,48,29.84,29.73,27,9,29,0.00
2012-7-14,82.8,67.1,54.9,59.2,54.9,51.4,88,67,44,29.92,29.79,21,6,21,0.00
2012-7-15,91.5,71.2,56.1,59.8,55.5,52.3,87,62,32,29.87,29.72,23,5,24,0.00
2012-7-16,68.2,60.8,56.0,54.1,52.3,51.1,85,74,58,29.87,29.74,32,12,32,0.00
2012-7-17,72.4,62.9,57.1,55.3,53.3,51.4,85,72,53,30.00,29.84,21,6,26,0.00
2012-7-18,81.1,67.7,55.4,56.6,53.0,49.8,83,61,40,30.00,29.92,16,5,18,0.00
2012-7-19,83.9,68.0,56.0,55.2,52.0,43.8,86,61,26,30.00,29.92,18,6,21,0.00
2012-7-20,93.4,74.4,57.5,63.0,56.4,53.2,87,58,32,30.06,29.92,13,2,15,0.00
2012-7-21,100.0,82.2,61.3,62.1,56.0,51.3,80,45,22,29.95,29.80,13,2,17,0.00
2012-7-22,101.5,80.8,61.7,58.9,54.7,48.0,75,46,17,29.87,29.74,14,4,15,0.00
2012-7-23,83.8,71.8,62.6,56.2,53.6,49.6,71,54,35,29.87,29.78,20,7,21,0.00
2012-7-24,89.6,72.5,57.8,56.2,51.8,43.6,80,52,21,29.92,29.83,17,6,18,0.00
2012-7-25,88.3,70.8,58.3,55.8,52.4,39.0,75,55,18,29.96,29.84,17,6,19,0.00
2012-7-26,83.6,66.2,55.3,57.6,53.2,49.9,82,65,37,29.94,29.85,21,7,21,0.00
2012-7-27,83.5,66.3,54.3,57.6,53.8,50.5,88,67,35,29.98,29.88,22,7,22,0.00
2012-7-28,89.2,70.7,55.7,58.9,55.2,52.2,89,61,33,30.00,29.91,16,5,16,0.00
2012-7-29,91.5,72.8,57.2,58.2,54.7,49.0,86,58,24,30.00,29.87,14,5,14,0.00
2012-7-30,98.0,76.1,58.0,63.8,56.0,49.9,84,55,21,29.96,29.82,12,2,15,0.00
2012-7-31,97.0,79.0,62.8,60.6,53.7,44.2,75,46,17,29.94,29.84,14,4,14,0.00
2012-8-1,98.1,75.4,60.1,57.3,52.0,29.3,79,52,9,30.01,29.88,15,3,17,0.00
2012-8-2,99.3,76.5,59.4,61.6,53.5,43.8,80,51,16,29.96,29.78,13,4,16,0.00
2012-8-3,89.6,70.4,58.0,58.8,54.7,52.1,81,61,32,29.85,29.70,18,6,21,0.00
2012-8-4,79.0,64.0,55.1,58.3,54.3,50.4,85,72,48,29.90,29.73,24,7,25,0.00
2012-8-5,84.9,69.5,58.2,61.7,56.9,51.6,88,66,44,30.00,29.88,18,6,19,0.00
2012-8-6,93.5,73.7,57.1,56.9,53.2,49.0,85,54,24,30.08,29.96,17,4,17,0.00
2012-8-7,98.8,75.8,60.5,62.8,53.1,39.3,76,49,13,30.01,29.89,17,4,17,0.00
2012-8-8,98.5,77.3,58.4,59.4,53.1,49.3,78,48,22,29.97,29.83,11,2,11,0.00
2012-8-9,102.0,80.3,61.4,65.0,54.2,45.0,75,46,15,29.90,29.74,13,2,13,0.00
2012-8-10,102.0,80.6,62.5,61.0,55.1,50.8,77,47,19,29.81,29.66,13,3,14,0.00
2012-8-11,105.4,80.5,59.8,65.7,53.2,7.7,78,46,3,29.76,29.66,16,3,16,0.00
2012-8-12,100.0,78.7,59.0,54.9,49.0,30.1,74,42,9,29.80,29.70,16,5,16,0.00
2012-8-13,103.3,81.2,61.6,58.9,51.4,40.8,69,40,13,29.81,29.68,14,4,15,0.00
2012-8-14,93.3,77.6,64.3,59.0,53.0,47.9,67,44,27,29.76,29.65,20,5,20,0.00
2012-8-15,92.3,74.5,62.6,58.0,54.4,49.8,71,52,27,29.80,29.69,18,6,20,0.00
2012-8-16,65.7,64.1,63.1,50.5,50.1,49.7,63,60,57,29.81,29.80,15,8,17,0.00
2012-8-20,91.8,80.2,60.6,58.0,54.8,52.4,75,44,27,29.89,29.75,16,6,19,0.00
2012-8-21,92.5,71.4,57.2,58.3,54.0,50.9,81,58,27,29.87,29.75,15,5,18,0.00
2012-8-22,88.4,69.6,57.7,58.2,55.0,52.8,85,63,31,29.88,29.79,17,5,18,0.00
2012-8-23,87.2,68.7,55.4,59.5,55.2,51.5,87,65,38,29.91,29.76,17,5,17,0.00
2012-8-24,88.3,70.4,56.7,59.2,53.6,42.9,85,60,21,29.88,29.75,16,4,17,0.00
2012-8-25,78.6,64.6,55.1,56.4,52.7,49.8,83,67,46,29.82,29.70,24,7,26,0.00
2012-8-26,77.1,62.8,53.9,52.3,50.8,49.6,87,67,40,29.92,29.76,27,10,27,0.00
2012-8-27,90.0,69.7,52.0,57.4,52.8,44.7,89,59,22,30.04,29.90,12,2,17,0.00
2012-8-28,93.3,75.4,58.8,61.5,53.3,44.9,86,52,19,30.00,29.87,16,3,16,0.00
2012-8-29,95.2,74.7,55.7,55.0,49.7,32.6,79,47,13,29.91,29.74,10,2,10,0.00
2012-8-30,91.9,73.7,57.8,54.7,49.6,26.9,80,47,10,29.78,29.69,17,3,18,0.00
2012-8-31,71.5,60.6,55.8,55.4,52.5,50.3,87,75,56,29.90,29.75,30,11,30,0.00
2012-9-1,79.3,64.8,54.5,57.0,53.3,50.3,88,69,41,30.03,29.90,28,4,28,0.00
2012-9-2,92.8,71.1,53.6,55.7,48.0,26.9,88,53,11,29.97,29.84,11,2,11,0.00
2012-9-3,95.5,75.1,57.8,54.8,47.1,22.8,75,43,8,29.96,29.84,15,2,15,0.00
2012-9-4,92.6,72.9,56.0,54.7,49.5,35.5,79,49,14,29.99,29.88,13,3,13,0.00
2012-9-5,86.6,68.0,55.5,54.8,51.3,47.3,80,58,28,29.96,29.85,18,4,22,0.00
2012-9-6,87.8,70.3,55.5,52.8,44.5,18.4,76,46,8,29.95,29.86,18,5,18,0.00
2012-9-7,90.3,71.8,55.9,51.2,46.2,42.6,71,43,21,30.05,29.91,15,4,16,0.00
2012-9-8,88.8,70.9,59.7,54.2,49.3,43.2,67,48,29,30.00,29.85,19,6,20,0.00
2012-9-9,88.5,69.0,56.8,53.0,49.9,46.5,75,54,24,29.93,29.81,18,7,20,0.00
2012-9-10,91.1,71.4,54.3,56.6,50.8,43.1,87,54,20,29.92,29.75,13,2,14,0.00
2012-9-11,91.0,72.5,56.2,57.5,52.3,46.9,81,53,24,29.89,29.77,13,3,13,0.00
2012-9-12,91.5,71.6,58.2,57.3,53.5,48.9,81,57,24,30.03,29.87,12,3,13,0.00
2012-9-13,96.3,74.6,59.3,60.4,54.4,48.8,79,53,22,30.06,29.93,9,2,10,0.00
2012-9-14,89.5,71.1,57.5,58.9,54.0,48.8,80,57,34,30.04,29.91,15,4,15,0.00
2012-9-15,92.9,70.8,53.0,54.1,49.0,37.9,84,51,15,30.05,29.92,14,4,15,0.00
2012-9-16,92.0,70.2,54.0,51.3,45.7,29.4,77,49,11,30.01,29.90,13,3,13,0.00
2012-9-17,86.1,66.7,52.8,52.5,48.6,43.9,79,56,24,30.00,29.90,18,6,19,0.00
2012-9-18,84.5,65.5,51.2,53.1,48.4,45.5,82,57,33,30.06,29.93,19,6,20,0.00
2012-9-19,81.8,65.9,54.3,54.6,51.0,47.3,83,61,38,30.06,29.94,17,5,18,0.00
2012-9-20,87.1,67.8,52.0,54.7,49.8,45.6,86,56,25,30.03,29.89,14,4,14,0.00
2012-9-21,88.1,69.8,54.8,54.2,48.9,31.6,80,52,14,29.96,29.82,12,3,12,0.00
2012-9-22,91.7,71.5,53.7,52.9,47.6,31.3,82,49,14,29.92,29.82,10,2,10,0.00
2012-9-23,69.9,64.8,61.1,51.0,46.9,43.0,69,53,41,29.86,29.84,19,4,21,0.00
2012-9-24,87.9,68.9,54.5,53.7,50.2,43.9,85,56,22,29.95,29.82,18,3,19,0.00
2012-9-25,88.5,70.0,56.6,57.8,52.5,48.2,82,58,27,29.89,29.76,13,3,13,0.00
2012-9-26,87.3,69.3,56.1,57.0,53.8,51.3,85,61,33,29.87,29.77,11,3,11,0.00
2012-9-27,94.7,74.5,55.1,59.4,54.7,50.9,87,55,23,29.91,29.78,7,1,7,0.00
2012-9-28,85.0,68.9,56.8,57.4,53.8,50.3,79,60,38,29.90,29.78,16,5,16,0.00
2012-9-29,91.1,71.3,54.0,58.0,52.9,49.1,86,57,24,30.01,29.86,12,2,13,0.00
2012-9-30,97.2,76.4,58.6,55.6,50.9,41.6,78,47,17,30.06,29.91,10,1,10,0.00
2012-10-1,98.9,78.0,61.7,54.5,48.4,38.4,67,40,16,30.00,29.83,8,1,8,0.00
2012-10-2,98.7,79.6,61.6,55.7,50.3,44.1,63,39,16,29.89,29.74,6,1,6,0.00
2012-10-3,92.6,75.8,61.9,54.8,50.7,42.7,71,45,19,29.89,29.77,22,4,22,0.00
2012-10-4,78.3,65.5,58.6,57.2,53.3,50.8,79,66,45,30.05,29.88,22,8,23,0.00
2012-10-5,74.8,64.0,56.2,55.0,52.6,50.6,83,68,47,30.11,30.02,21,6,21,0.00
2012-10-6,75.8,62.8,52.4,53.6,50.6,48.4,89,66,43,30.06,29.93,15,2,15,0.00
2012-10-7,77.4,61.9,51.3,55.8,51.4,48.5,90,71,40,30.00,29.88,15,3,16,0.00
2012-10-8,74.1,63.1,54.2,53.2,49.8,47.3,78,63,45,30.01,29.94,18,6,20,0.00
2012-10-9,75.2,62.3,50.8,53.6,49.9,44.3,88,66,34,30.03,29.90,10,2,10,0.00
2012-10-10,77.9,63.3,51.9,53.2,50.1,46.4,84,64,36,29.94,29.81,17,3,18,0.01
2012-10-11,56.9,56.3,55.3,51.0,50.2,49.1,82,80,76,29.88,29.86,22,7,22,0.00
2012-10-15,70.0,68.8,67.1,57.8,57.3,56.8,71,67,63,29.95,29.94,4,0,4,0.00
2012-10-16,88.5,74.8,63.7,66.1,61.4,45.1,86,65,34,29.95,29.82,10,2,10,0.00
2012-10-17,88.7,75.2,61.9,46.6,32.6,22.1,47,23,9,29.92,29.80,24,4,24,0.00
2012-10-18,88.9,70.5,57.7,61.4,47.2,32.6,80,46,23,29.99,29.88,20,4,22,0.00
2012-10-19,79.0,68.4,60.2,60.8,58.4,54.3,88,72,51,30.03,29.85,15,5,16,0.00
2012-10-20,76.1,62.9,54.5,58.2,52.7,47.6,88,71,48,29.87,29.74,18,4,19,0.00
2012-10-21,68.1,58.2,51.5,49.2,42.3,32.1,82,58,27,29.90,29.77,22,5,22,0.01
2012-10-22,63.1,55.0,51.2,54.1,49.3,43.6,95,82,51,29.93,29.74,19,4,25,0.76
2012-10-23,62.9,54.8,49.6,49.7,45.7,38.8,94,73,43,30.07,29.93,11,3,16,0.12
2012-10-24,64.0,56.3,50.0,53.4,49.1,44.4,94,78,56,30.20,30.02,14,3,14,0.05
2012-10-25,65.7,58.6,51.9,51.6,46.3,36.3,94,66,41,30.30,30.20,17,4,17,0.01
2012-10-26,75.0,61.9,47.5,49.0,41.2,35.9,76,49,28,30.24,30.08,9,1,9,0.04
2012-10-27,81.3,64.4,51.7,57.4,52.0,47.7,89,67,37,30.08,29.94,10,1,12,0.00
2012-10-28,78.5,65.4,53.7,57.5,54.5,50.1,90,70,44,30.01,29.93,11,1,11,0.00
2012-10-29,78.6,63.4,49.7,58.1,54.1,47.5,93,74,46,30.11,29.99,0,0,0,0.00
2012-10-30,74.6,61.4,50.2,59.2,53.1,48.0,92,77,45,30.07,29.93,12,2,14,0.00
2012-10-31,59.3,56.9,55.6,54.8,53.5,52.6,91,88,84,29.96,29.93,14,5,15,0.00
2012-11-2,70.3,62.4,51.8,56.3,54.3,50.1,95,75,61,30.09,30.01,8,1,8,0.01
2012-11-3,74.7,61.8,51.5,56.4,53.0,49.4,94,75,46,30.16,30.06,9,1,9,0.00
2012-11-4,78.1,63.2,52.3,58.0,53.7,49.8,92,73,46,30.22,30.13,11,1,11,0.00
2012-11-5,79.3,63.8,51.0,59.4,53.9,48.6,93,72,42,30.19,30.05,9,1,9,0.00
2012-11-6,79.3,63.5,50.7,59.8,54.5,48.2,92,74,49,30.12,29.99,7,0,7,0.00
2012-11-7,66.8,57.8,49.5,56.1,52.4,46.8,93,82,67,30.03,29.86,22,5,22,0.00
2012-11-8,59.2,51.3,43.4,51.5,43.9,38.3,90,76,55,29.94,29.84,20,5,20,0.06
2012-11-9,56.7,48.2,42.3,42.9,39.7,37.1,91,74,52,29.97,29.90,8,2,8,0.00
2012-11-10,58.7,47.2,37.5,40.1,36.2,33.7,89,68,42,30.26,29.97,9,1,9,0.00
2012-11-11,57.4,46.5,38.1,39.9,37.1,33.9,86,71,48,30.42,30.26,9,1,9,0.00
2012-11-12,61.9,49.5,39.4,39.6,37.1,33.6,88,65,36,30.42,30.28,11,1,11,0.00
2012-11-13,65.8,52.4,39.4,41.4,39.0,35.3,87,63,35,30.30,30.13,8,1,8,0.00
2012-11-14,68.8,54.2,43.4,51.5,45.6,38.7,90,74,50,30.16,30.04,13,1,13,0.00
2012-11-15,48.5,46.8,45.1,45.7,44.3,42.9,93,91,89,30.04,30.02,2,0,2,0.00
2012-11-16,58.4,54.7,52.1,53.2,52.0,49.8,96,91,78,30.03,29.91,11,2,11,0.16
2012-11-17,62.1,56.8,52.7,59.4,54.4,51.6,97,92,75,30.01,29.83,21,5,21,0.26
2012-11-18,60.7,54.2,46.2,51.9,46.9,42.9,93,77,53,30.19,30.00,13,2,13,0.09
2012-11-19,66.8,57.9,50.9,51.2,48.9,47.1,90,73,52,30.25,30.16,13,2,13,0.30
2012-11-20,65.3,58.5,51.9,57.7,53.4,48.4,95,83,71,30.17,30.02,19,3,19,0.11
2012-11-21,66.1,57.7,47.2,58.5,52.5,44.1,97,84,59,30.20,30.05,12,2,12,0.58
2012-11-22,67.0,54.0,44.1,49.7,45.1,41.2,92,74,46,30.27,30.18,8,1,8,0.07
2012-11-23,65.3,52.4,42.2,51.1,45.9,40.3,94,80,55,30.30,30.18,10,1,10,0.00
2012-11-24,67.0,53.0,42.0,51.0,46.0,39.8,93,79,55,30.21,30.03,7,0,7,0.00
2012-11-25,66.3,52.5,41.6,52.6,47.0,40.0,95,83,59,30.05,29.93,7,0,7,0.00
2012-11-26,63.7,51.0,42.1,53.3,47.1,40.8,97,87,65,30.09,29.97,7,0,7,0.00
2012-11-27,61.7,52.3,44.7,53.2,48.6,43.1,95,88,70,30.13,30.02,8,1,8,0.00
2012-11-28,61.7,53.7,49.7,57.4,51.7,48.3,96,93,81,30.06,29.89,17,2,17,0.00
2012-11-29,60.9,56.4,51.3,57.3,52.9,48.8,93,88,78,30.07,29.86,19,4,19,0.00
2012-11-30,61.1,58.5,56.8,58.2,56.8,54.2,97,94,84,30.03,29.76,22,6,22,0.02
2012-12-1,61.9,57.8,54.9,60.0,55.9,52.6,97,93,86,30.04,29.86,17,4,17,3.01
2012-12-2,62.7,56.5,45.5,58.8,51.9,43.6,96,86,57,30.11,29.71,34,6,34,1.37
2012-12-3,59.5,50.9,41.4,50.3,46.3,40.1,96,85,66,30.23,30.10,11,1,11,0.00
2012-12-4,58.6,54.9,50.5,54.5,51.9,48.7,96,90,78,30.24,30.16,8,1,8,0.00
2012-12-5,56.2,55.3,54.6,55.5,54.2,52.8,98,96,92,30.20,30.13,11,2,11,0.00
2012-12-6,62.4,55.2,47.9,54.5,51.5,45.7,97,88,68,30.15,30.07,9,1,9,0.00
2012-12-7,62.0,49.5,40.2,49.2,44.3,38.6,96,84,54,30.17,30.07,7,1,7,0.00
2012-12-8,45.7,43.4,41.6,44.1,41.7,39.8,95,94,92,30.11,30.08,4,0,4,0.00
2012-12-9,63.1,57.9,49.8,44.6,42.6,40.5,79,58,44,30.20,30.14,17,4,17,0.01
2012-12-10,63.9,51.2,40.7,51.2,45.5,39.6,97,82,58,30.27,30.12,12,1,12,0.00
2012-12-11,54.2,46.0,37.6,51.3,43.6,36.6,98,92,79,30.12,29.84,21,3,21,0.00
2012-12-12,56.0,49.7,40.2,49.1,41.6,36.9,96,75,53,29.91,29.82,15,3,15,0.00
2012-12-13,53.2,43.7,35.7,40.6,36.2,33.4,93,76,52,29.96,29.86,15,2,15,0.00
2012-12-14,48.9,41.0,34.1,40.9,36.3,31.4,91,84,69,30.04,29.83,7,1,7,0.00
2012-12-15,43.6,39.5,32.8,42.3,37.8,31.0,96,93,89,30.12,30.04,6,1,6,0.00
2012-12-16,51.9,46.6,41.8,50.8,44.2,40.5,96,92,84,30.15,30.01,10,2,10,0.00
2012-12-17,59.2,52.5,42.5,53.1,48.9,37.9,97,88,68,30.05,29.95,16,4,16,0.00
2012-12-18,53.6,45.7,36.2,38.0,31.4,26.2,89,59,36,30.18,29.98,16,3,16,0.00
2012-12-19,50.0,39.5,30.7,34.0,30.0,26.1,87,70,48,30.34,30.18,9,1,9,0.01
2012-12-20,53.7,41.6,30.2,39.8,33.4,27.9,92,74,49,30.26,30.00,17,2,17,0.22
2012-12-21,49.5,46.5,42.6,48.1,42.5,33.4,96,86,63,30.00,29.87,24,3,24,0.14
2012-12-22,57.1,49.6,46.3,50.1,45.7,42.1,95,87,61,30.09,29.84,23,5,23,0.31
2012-12-23,52.2,49.3,47.3,50.9,47.5,45.5,96,93,88,30.09,29.86,26,6,26,0.08
2012-12-24,53.7,46.4,39.0,45.8,41.0,35.7,96,82,59,30.23,30.00,15,2,15,0.08
2012-12-25,45.9,42.7,39.5,44.8,40.4,34.3,96,92,80,30.17,29.80,13,1,13,0.05
2012-12-26,56.1,45.9,39.7,46.7,42.9,38.5,96,89,67,30.10,29.84,16,2,16,0.06
2012-12-27,54.0,44.3,38.4,44.8,39.6,34.3,96,85,59,30.18,30.10,11,1,11,0.04
2012-12-28,43.4,39.8,33.7,40.7,37.1,31.9,95,90,84,30.22,30.09,14,2,14,0.03
2012-12-29,54.2,45.7,38.0,41.3,38.5,35.1,90,77,57,30.09,30.02,15,3,15,0.03
2012-12-30,54.3,45.5,36.5,38.8,33.7,28.0,92,66,43,30.17,30.06,15,4,18,0.03
2012-12-31,51.2,43.5,35.1,34.8,30.6,26.6,87,61,48,30.32,30.17,15,2,15,0.03
2013-1-1,52.7,42.5,34.2,37.4,32.5,29.3,88,69,43,30.32,30.23,18,3,18,0.04